עמוד ראשי
METAR-TAF:

METAR-TAF

שדות תעופה :

מנסניו, קובה

קו רוחב: 20-20N, קו אורך: 077-07W, גובה: 60מטר

METAR: חסר

זמן: 10:29 (14:29 UTC)

תחזית

הדו"ח נערך לפני 3 שעות ו 29דקות, בשעה 11:00 UTC
תחזית בתוקף מ 13 ב 12 UTC עד 13 ב 24 UTC
רוח 3קשר עם כיוונים משתנים
ראות: 9000מטר
מעט עננים בגובה 2000רגל

TAF: MUMZ 131100Z 1312/1324 VRB03KT 9000 FEW020

תצפיות ותחזיות מזג אוויר לגבי יותר מ- 4,000 שדות תעופה ברחבי העולם. דוחות METAR ו- TAF.

התחנות הזמינות מסומנות בנקודות צהובות ואדומות על גבי המפה.

העבר את העכבר לנקודה הצבעונית על מנת לראות את שם התחנה.

לאחר מכן, לחץ כדי לראות את תוכן ואת תחזיות מזג האוויר.

כדי לשנות את המפה: לחץ על הכפתורים הירוקים עם הפלוס השחור כדי להתקרב; על הכפתור הירוק עם המקף כדי להתרחק; או בחיצים הירוקים למפות סמוכות.


METAR-TAF: